RH
100 83 70 70 64 50 50 44 36 26 25 27 28 25 20 15 14 17 24 34 46 41 23 21 16 15 13 12 15 16 14 13 13 14 15 14 15 14 14 14 18 25 30 31 32 30 26
69 67 47 44 39 22 17 22 20 17 18 25 28 23 25 21 26 27 29 21 23 22 21 22 22 18 16 18 20 18 15 15 15 14 14 15 15 15 14 14 15 15 15 20 25 27 32
34 32 20 17 19 21 22 18 23 17 16 25 32 29 28 23 24 24 20 23 25 28 28 27 24 24 25 24 22 22 19 19 17 17 15 17 16 17 17 19 21 23 21 22 21 22 21
15 16 16 18 20 24 24 23 31 27 24 19 22 30 31 28 45 39 31 30 28 28 33 27 29 29 29 32 31 25 20 23 19 18 19 20 19 19 21 22 22 26 27 27 28 26 27
22 16 17 19 20 25 24 28 33 42 31 22 27 33 40 73 65 63 41 40 38 36 38 36 35 36 38 28 27 26 24 24 27 25 23 26 25 27 30 29 27 26 28 29 31 32 32
22 20 22 27 40 52 58 34 31 42 44 76 37 34 31 37 76 97 82 60 51 59 55 50 49 47 43 41 33 32 28 31 34 32 26 31 34 34 34 35 36 34 33 35 32 33 35
25 39 24 30 56 49 47 56 52 70 100 73 61 53 48 38 36 69 84 100 55 75 70 64 71 56 50 42 34 31 36 36 40 35 30 32 42 43 40 42 45 46 44 42 40 37 36
32 35 37 35 41 48 58 46 40 44 78 86 43 39 73 80 67 57 84 80 49 60 86 64 73 60 54 50 40 34 33 34 35 40 42 37 44 46 48 48 52 57 58 52 50 45 43
22 23 30 31 35 43 49 52 70 90 100 100 100 70 37 34 62 88 62 80 53 53 52 58 73 62 60 55 47 40 41 50 47 50 52 46 39 40 50 55 56 66 70 64 57 55 48
25 26 30 35 40 36 40 43 72 100 100 96 100 100 96 53 48 82 62 71 77 78 56 55 65 66 61 56 54 46 49 48 48 55 54 50 39 43 46 55 59 62 65 72 74 64 60
30 32 34 40 40 43 49 58 78 99 86 88 83 67 96 96 76 96 99 100 87 96 71 58 61 73 71 62 52 49 43 44 56 59 52 43 42 38 47 55 60 66 73 74 69 83 69
33 34 34 39 49 52 62 61 68 68 67 74 90 72 80 79 76 98 100 100 100 97 100 97 92 90 78 61 59 60 61 62 61 65 59 52 50 48 51 52 59 72 80 82 78 92 70
52 41 43 38 37 41 48 53 54 58 59 59 72 97 87 87 88 81 88 89 86 79 93 97 100 95 86 75 73 62 70 73 71 62 65 55 56 61 64 68 70 82 92 96 79 92 75
100 95 51 67 57 43 45 55 64 72 66 71 81 84 90 100 100 100 95 88 84 83 71 70 75 89 99 79 80 75 76 84 81 71 62 52 49 70 75 76 77 83 88 87 62 38 55
82 95 100 100 100 99 75 79 100 100 100 100 100 100 100 82 93 100 100 97 83 70 75 64 59 62 72 76 76 78 71 94 84 76 66 60 59 76 81 82 82 81 88 61 52 53 66
74 88 96 98 98 100 100 100 100 100 100 100 100 100 99 79 81 93 100 100 100 92 87 90 75 65 70 81 77 84 84 97 84 82 75 77 72 79 85 77 62 46 44 52 53 61 79
83 47 78 87 97 94 100 100 100 100 100 100 100 100 98 99 92 69 90 100 100 100 100 97 88 77 74 73 79 84 93 90 89 88 83 76 70 75 78 56 45 37 46 62 73 80 90
26 36 43 46 49 71 88 90 94 100 100 100 100 100 100 100 76 85 88 77 82 99 100 98 93 87 92 90 83 86 100 99 89 85 76 76 62 50 46 36 41 40 54 85 85 92 90
23 30 31 40 49 33 31 49 55 55 72 86 91 95 99 99 89 93 96 97 98 96 90 90 91 93 90 78 77 81 85 84 84 67 64 59 48 46 34 40 43 53 78 99 100 93 100
59 32 32 30 75 64 70 57 73 75 58 77 81 98 100 100 82 86 96 100 100 100 100 93 99 100 100 100 99 84 89 74 36 55 57 50 40 38 49 56 68 87 100 100 91 100 100
100 100 100 93 52 53 44 57 70 72 78 73 91 90 95 94 100 100 96 100 100 100 100 100 100 100 98 100 100 69 32 29 49 49 43 45 47 63 60 64 93 100 96 99 100 100 100
100 100 100 100 100 96 79 81 75 98 75 82 63 86 66 81 84 94 100 88 87 94 91 99 100 100 100 71 52 45 49 49 46 47 58 71 77 72 83 100 100 96 100 100 100 100 100
100 100 100 99 100 100 99 91 84 77 62 53 82 87 74 70 64 62 67 70 63 77 90 98 95 64 62 61 62 51 48 46 54 71 69 70 73 72 98 100 100 100 100 100 100 100 100
100 100 100 100 100 100 100 100 93 80 82 74 74 88 81 65 68 99 100 100 100 100 100 100 100 96 82 71 68 77 72 71 69 74 99 68 70 100 100 100 100 100 100 100 100 100 98
100 100 100 100 100 100 100 100 100 96 86 94 100 98 90 93 100 100 100 98 100 97 94 86 87 91 92 70 61 60 65 67 94 79 70 84 99 100 100 100 100 100 100 100 100 100 100
100 100 100 100 100 100 100 100 100 100 100 100 100 100 100 100 99 99 100 100 100 100 100 100 96 88 74 70 68 69 74 77 82 84 94 99 100 100 100 98 94 100 100 99 100 100 94
100 100 100 100 100 100 100 100 100 100 100 100 100 100 100 100 100 100 100 100 100 100 100 100 100 100 96 89 84 70 74 82 84 85 100 92 97 97 95 100 100 100 96 100 98 86 82
99 100 100 100 100 100 100 100 100 100 100 100 100 100 100 100 100 100 100 100 100 100 100 100 100 99 79 77 64 68 66 77 84 95 100 100 99 100 100 99 100 95 85 94 83 77 59
100 100 100 100 100 100 100 100 100 100 100 100 100 100 100 100 100 100 100 100 100 100 94 94 90 80 64 68 71 67 89 80 82 86 100 100 100 100 100 100 89 87 79 79 67 50 37
Wind_Speed
20 19 20 21 21 19 16 14 12 5 2 6 9 11 13 14 15 14 18 22 18 16 12 12 13 16 19 19 19 22 24 25 25 26 29 26 28 21 24 21 16 18 21 24 25 25 21
23 23 17 9 4 4 9 12 11 8 7 10 9 14 19 20 17 18 19 15 14 15 12 18 17 18 17 16 20 23 23 23 27 27 28 29 25 28 28 27 24 20 14 16 16 17 20
9 9 11 15 16 17 20 21 21 21 15 12 11 19 15 19 20 21 17 18 20 18 15 15 16 17 16 16 21 22 24 24 24 27 30 29 27 25 28 27 31 33 28 30 22 18 14
17 16 17 21 25 24 20 19 16 19 18 20 19 21 14 12 16 17 14 14 15 14 14 15 16 15 17 18 21 21 24 23 24 27 28 30 28 26 26 32 30 33 35 29 31 25 24
21 21 22 22 20 18 16 14 13 13 15 13 10 10 7 3 9 11 11 10 11 12 10 13 15 14 15 19 21 22 22 22 24 27 29 32 30 32 38 37 39 35 37 33 30 30 31
19 24 22 19 14 11 9 8 9 8 7 5 5 4 3 3 4 3 4 8 6 6 8 11 14 15 17 17 22 20 21 22 25 29 30 35 35 33 32 36 41 42 43 44 42 37 36
21 19 21 18 15 11 8 7 4 6 4 2 3 6 3 3 5 7 10 10 6 5 7 11 12 14 17 20 25 23 24 26 28 32 31 36 37 34 35 38 41 43 46 47 45 44 41
23 20 16 13 15 14 13 12 10 9 9 7 10 9 13 12 9 9 11 9 10 9 10 12 13 16 19 21 23 26 27 29 32 38 40 42 42 38 36 35 44 49 51 55 55 52 49
26 22 19 16 17 16 14 13 14 14 15 17 19 18 17 18 19 15 13 15 15 13 15 15 19 21 22 23 26 27 28 31 36 42 47 46 48 44 42 44 48 52 54 59 65 62 58
30 28 25 24 23 25 22 22 21 21 22 22 15 15 19 22 21 18 16 16 19 17 19 21 21 26 28 30 32 33 33 38 41 47 52 53 55 50 52 53 53 54 58 60 67 69 66
35 34 33 32 32 32 30 29 28 27 25 27 25 21 21 22 25 25 24 18 22 25 27 27 28 29 33 34 37 39 41 43 49 54 54 55 56 54 56 58 61 63 63 66 70 71 74
45 43 41 39 39 38 36 35 33 32 32 32 26 26 26 25 27 27 24 24 26 29 32 31 32 37 36 37 40 44 45 50 54 55 58 57 58 60 62 65 67 68 71 73 76 76 79
50 50 48 48 47 46 44 42 41 40 40 40 40 33 31 34 35 36 37 37 35 36 33 34 39 40 41 42 47 50 52 55 60 61 63 62 64 66 68 70 73 74 77 79 79 83 84
58 56 57 55 55 53 50 47 48 48 47 48 45 44 41 38 39 41 41 42 43 43 41 43 43 45 47 48 55 53 55 60 62 64 65 66 67 70 70 75 78 79 84 87 83 84 84
60 60 55 57 58 57 55 53 51 51 50 51 51 51 49 50 49 48 48 49 49 51 50 51 51 51 54 57 59 60 63 64 67 70 74 72 71 71 72 79 83 85 88 90 89 91 89
64 60 59 58 56 56 57 57 56 55 55 55 53 52 52 51 53 54 55 55 55 56 55 56 57 57 58 61 63 66 67 68 73 74 78 74 74 75 78 85 87 89 88 92 95 98 96
74 70 66 62 59 59 60 59 59 57 56 52 53 55 55 55 56 56 55 55 58 61 60 61 63 63 65 69 71 73 75 76 78 81 82 83 81 81 84 88 88 85 90 97 102 105 107
79 74 73 71 67 65 63 62 61 60 59 58 60 59 59 60 59 62 60 60 62 62 65 66 67 68 69 72 75 77 79 82 85 88 89 86 85 86 87 90 87 88 96 102 105 106 109
81 80 75 72 73 73 70 68 67 67 65 61 61 61 64 66 66 66 65 67 67 69 70 71 72 75 78 81 83 83 85 88 92 92 90 92 93 92 89 89 90 93 103 106 107 111 101
84 83 80 78 79 77 74 73 73 69 68 68 66 65 67 68 70 69 68 70 73 75 77 77 78 81 84 87 88 88 88 90 90 93 94 92 92 92 93 96 98 107 107 111 110 108 110
80 85 82 85 81 82 80 79 76 75 73 73 74 73 73 70 70 72 71 72 75 77 78 80 84 87 88 86 90 91 87 89 96 95 96 96 96 94 102 106 106 110 111 111 107 110 114
82 82 81 83 82 80 79 81 81 79 77 79 78 80 81 75 77 75 77 79 77 77 77 78 81 83 88 91 91 93 94 97 96 98 99 100 102 104 108 112 111 111 111 109 112 113 118
85 86 86 84 84 84 81 82 81 80 82 78 80 78 76 74 73 75 79 80 80 80 82 86 87 87 88 89 90 93 95 97 96 97 104 107 110 110 108 111 112 114 109 114 114 115 120
89 89 88 86 85 84 86 85 83 82 81 80 80 80 76 76 73 72 72 74 79 81 78 80 80 83 88 92 94 93 97 100 102 104 106 112 114 116 117 117 116 115 116 116 116 117 107
92 90 90 87 85 86 86 85 84 81 79 75 75 76 76 75 73 74 76 80 81 82 84 87 90 91 90 95 98 99 102 105 106 111 115 116 118 118 120 120 121 119 117 118 114 105 101
93 91 93 87 87 86 83 81 76 72 71 73 74 78 78 78 81 84 83 83 85 87 89 91 94 97 101 103 103 107 109 109 110 110 108 112 116 117 120 122 127 117 116 110 102 100 102
97 96 96 92 92 87 79 78 74 75 78 79 80 76 75 77 77 82 85 87 91 94 94 97 101 104 106 108 110 113 115 116 116 115 111 114 119 122 126 126 123 115 109 103 102 102 101
101 99 96 97 92 88 85 82 80 80 83 85 83 82 81 81 83 86 88 88 91 95 100 105 109 112 115 116 118 119 120 118 119 120 123 124 125 126 124 124 116 107 102 100 101 102 105
101 101 101 98 97 95 89 88 90 89 88 91 89 87 88 90 89 91 92 93 98 103 106 107 110 113 116 114 117 120 118 117 120 122 124 123 121 125 125 113 108 100 99 100 101 104 105
Wind_Direction
226 231 243 252 261 264 267 276 284 274 119 98 78 54 64 68 72 74 102 109 111 108 84 81 75 68 59 66 46 37 42 43 38 36 31 39 29 31 29 21 357 322 309 300 296 293 291
239 246 256 242 208 134 118 109 100 89 104 102 84 84 76 64 74 90 97 96 97 86 85 78 62 62 63 46 35 36 36 35 26 24 32 26 23 22 18 24 19 14 354 350 337 326 316
191 168 150 134 126 114 110 108 95 88 91 120 118 103 96 85 77 85 94 85 88 88 76 56 53 55 50 40 39 34 26 21 24 21 14 14 11 11 9 14 14 11 4 6 353 352 343
132 134 137 134 122 122 118 117 105 94 98 100 111 108 94 97 86 84 74 68 71 71 60 45 42 50 46 36 26 19 16 16 10 8 7 4 5 2 1 1 1 2 358 349 353 346 327
136 136 135 133 136 125 124 123 115 109 104 99 104 107 108 98 120 72 48 56 61 61 47 35 34 36 30 16 10 5 5 3 359 358 359 357 358 359 360 0 357 352 349 344 330 327 325
156 151 152 149 149 144 136 136 133 122 89 104 108 88 108 55 172 152 34 18 36 35 34 24 16 12 5 2 355 352 352 351 350 349 349 351 351 352 347 350 351 349 350 346 344 334 321
168 167 169 173 180 197 197 179 178 192 244 243 284 234 233 279 247 277 298 301 304 315 10 357 1 350 348 344 344 345 340 342 343 342 338 341 339 340 344 344 341 341 338 336 339 333 327
184 189 191 206 203 213 225 229 245 263 282 278 278 258 270 270 282 261 277 264 272 284 286 325 329 332 333 332 333 336 333 334 336 337 337 335 333 327 331 331 337 337 334 335 335 335 328
201 211 218 239 241 236 234 238 253 267 272 282 274 273 266 271 274 273 252 255 272 284 294 302 308 318 321 321 321 322 324 326 329 332 332 329 329 329 329 331 334 330 329 333 334 333 328
211 220 228 236 246 244 245 253 264 261 269 276 270 271 266 266 273 263 255 268 259 292 300 307 299 307 312 312 313 314 317 320 324 327 329 328 329 326 329 331 330 325 326 326 327 328 327
232 231 233 240 249 255 256 259 263 266 275 279 272 278 277 267 268 275 264 273 282 285 296 302 300 301 303 308 313 317 319 320 322 324 326 327 326 325 325 324 326 325 323 322 322 322 324
235 238 242 249 257 259 261 260 261 266 273 278 278 274 275 272 269 276 276 273 280 282 282 288 294 303 302 307 312 314 317 318 321 322 323 324 322 321 320 321 321 321 320 319 321 318 320
244 242 245 251 254 259 263 262 263 268 275 278 279 280 275 278 281 277 278 282 287 292 290 288 287 297 300 305 312 313 312 314 318 320 321 321 318 318 317 318 319 320 319 318 320 315 314
247 248 250 255 256 256 258 262 268 272 274 275 277 275 278 278 279 279 278 281 284 290 292 294 294 294 299 300 305 308 308 309 312 315 316 316 317 315 315 316 318 317 316 314 315 313 313
249 248 250 255 258 259 260 262 265 270 275 274 274 276 277 278 276 277 278 277 280 284 287 291 291 294 295 297 302 304 307 307 310 313 313 314 316 313 312 314 315 314 312 310 310 313 313
250 251 252 251 253 258 261 263 264 267 271 275 278 280 283 282 284 281 281 281 279 282 284 289 292 294 294 296 299 301 303 303 307 308 309 311 312 311 311 313 313 313 312 310 307 311 311
247 251 251 254 255 255 258 262 265 267 269 271 276 278 281 282 282 281 281 284 281 281 284 286 289 292 293 295 297 300 301 302 303 306 308 309 312 312 312 313 312 310 310 309 309 308 310
248 247 251 252 254 255 258 260 263 264 266 270 272 274 275 277 281 281 280 282 284 286 287 288 289 290 292 295 297 298 299 301 303 303 304 306 311 312 310 312 309 308 309 309 308 309 312
247 251 251 254 257 258 258 261 264 266 267 269 270 273 276 278 281 283 283 283 284 285 287 289 291 291 293 294 295 296 297 299 302 303 307 310 311 309 309 308 310 308 309 308 308 310 313
240 245 250 254 257 259 262 262 265 266 268 270 272 274 276 278 281 282 283 285 286 286 286 288 289 290 292 294 294 296 296 299 304 306 307 307 308 307 309 309 309 310 311 311 313 314 314
243 244 249 250 255 258 261 263 267 268 269 272 275 275 277 277 276 278 281 281 282 283 286 286 288 290 292 293 293 297 303 303 303 304 305 305 307 306 308 309 309 313 311 313 313 311 312
241 245 248 250 252 255 258 258 260 263 266 269 268 274 274 278 280 281 281 283 284 284 286 287 288 288 290 293 297 299 300 300 301 303 304 304 306 308 310 310 312 315 314 311 311 310 310
240 244 247 249 253 254 256 259 262 265 267 270 271 272 273 274 276 279 282 283 285 287 287 288 289 292 294 295 296 295 296 298 299 299 303 307 309 311 312 312 315 314 310 309 309 307 308
238 244 247 249 252 256 257 260 263 264 266 269 270 272 272 275 276 281 283 284 284 285 287 289 291 292 291 291 292 292 295 298 301 304 307 309 308 311 313 313 313 311 310 309 307 308 308
238 241 245 247 252 254 258 258 257 261 263 266 269 271 273 271 273 274 277 279 281 283 284 285 285 286 288 290 292 294 297 300 303 305 307 308 309 308 310 312 311 310 308 308 309 308 306
237 239 242 246 248 252 252 251 251 255 259 262 265 268 270 276 275 274 278 279 279 282 285 285 285 286 288 290 292 296 297 300 302 306 306 306 307 310 309 310 311 307 308 309 308 305 306
234 237 239 245 247 244 245 245 248 249 260 263 268 269 271 275 277 276 276 278 279 280 281 282 283 285 287 290 293 296 299 299 302 303 303 305 307 308 309 309 309 309 310 308 305 306 307
236 235 239 240 239 240 244 248 252 260 266 267 268 270 273 276 276 276 277 278 281 280 280 281 283 286 288 290 294 295 298 300 302 301 300 304 305 306 306 309 309 308 308 306 307 308 308
233 235 235 234 237 241 244 248 255 259 261 267 267 269 273 277 277 279 282 282 284 283 283 283 285 287 289 292 293 296 299 301 302 303 304 305 304 305 308 307 307 307 306 307 308 308 310